When you browse on this site, cookies collect data to enhance your experience and personalize the content and advertising you see.
Visit our Privacy Policy to learn more. By continuing to use the site, you agree to this use of cookies and data.
  • In Deutschland
  • Länderverzeichnis
  • Für 7 Tage
  • Wassertemperatur
  • Wetterkarte
  • Widgets
  • user-avatar
    Anmelden

    Stündliche Wetter Verhnyaya Kosva

    Heute, 19 Oktober, Samstag

    Zeit Temperatur Niederschläge Wind Luftdruck Luftfeuchtigkeit
    00:00 -6°C° 0 mm 2 m/S 740 mmHg 81%
    01:00 -6°C° 0 mm 2 m/S 740 mmHg 80%
    02:00 -6°C° 0 mm 2 m/S 741 mmHg 80%
    03:00 -6°C° 0 mm 2 m/S 741 mmHg 80%
    04:00 -7°C° 0 mm 2 m/S 741 mmHg 78%
    05:00 -6°C° 0 mm 1 m/S 742 mmHg 79%
    06:00 -6°C° 0 mm 1 m/S 742 mmHg 80%
    07:00 -6°C° 0 mm 1 m/S 742 mmHg 81%
    08:00 -4°C° 0 mm 1 m/S 743 mmHg 75%
    09:00 -4°C° 0 mm 1 m/S 743 mmHg 69%
    10:00 -3°C° 0 mm 1 m/S 744 mmHg 63%
    11:00 -2°C° 0 mm 1 m/S 744 mmHg 59%
    12:00 -1°C° 0 mm 1 m/S 744 mmHg 55%
    13:00 -1°C° 0 mm 1 m/S 744 mmHg 51%
    14:00 -1°C° 0 mm 1 m/S 744 mmHg 53%
    15:00 -1°C° 0 mm 1 m/S 744 mmHg 55%
    16:00 -1°C° 0 mm 1 m/S 744 mmHg 57%
    17:00 -2°C° 0 mm 1 m/S 744 mmHg 60%
    18:00 -3°C° 0 mm 1 m/S 744 mmHg 64%
    19:00 -3°C° 0 mm 1 m/S 744 mmHg 67%
    20:00 -4°C° 0 mm 1 m/S 744 mmHg 68%
    21:00 -4°C° 0 mm 1 m/S 744 mmHg 69%
    22:00 -4°C° 0 mm 1 m/S 745 mmHg 70%
    23:00 -4°C° 0 mm 1 m/S 744 mmHg 71%

    Morgen, 20 Oktober, Sonntag

    Zeit Temperatur Niederschläge Wind Luftdruck Luftfeuchtigkeit
    00:00 -4°C° 0 mm 1 m/S 744 mmHg 72%
    01:00 -6°C° 0 mm 1 m/S 744 mmHg 72%
    02:00 -6°C° 0 mm 1 m/S 744 mmHg 73%
    03:00 -6°C° 0 mm 1 m/S 744 mmHg 73%
    04:00 -6°C° 0 mm 1 m/S 744 mmHg 73%
    05:00 -6°C° 0 mm 1 m/S 744 mmHg 73%
    06:00 -7°C° 0 mm 2 m/S 743 mmHg 73%
    07:00 -7°C° 0 mm 2 m/S 743 mmHg 73%
    08:00 -6°C° 0 mm 2 m/S 743 mmHg 67%
    09:00 -5°C° 0 mm 2 m/S 743 mmHg 61%
    10:00 -5°C° 0 mm 3 m/S 742 mmHg 56%
    11:00 -4°C° 0 mm 3 m/S 742 mmHg 55%
    12:00 -4°C° 0 mm 3 m/S 741 mmHg 54%
    13:00 -3°C° 0 mm 4 m/S 740 mmHg 53%
    14:00 -3°C° 0 mm 4 m/S 740 mmHg 62%
    15:00 -3°C° 0 mm 4 m/S 739 mmHg 71%
    16:00 -3°C° 0 mm 4 m/S 739 mmHg 80%
    17:00 -3°C° 0 mm 4 m/S 738 mmHg 83%
    18:00 -4°C° 0 mm 5 m/S 738 mmHg 86%
    19:00 -4°C° 0 mm 5 m/S 738 mmHg 89%
    20:00 -4°C° 0.8 mm 5 m/S 737 mmHg 91%
    21:00 -2°C° 0.8 mm 5 m/S 737 mmHg 94%
    22:00 -2°C° 0.8 mm 5 m/S 737 mmHg 96%
    23:00 -2°C° 1.1 mm 4 m/S 736 mmHg 96%

    übermorgen, 21 Oktober, Montag

    Zeit Temperatur Niederschläge Wind Luftdruck Luftfeuchtigkeit
    00:00 -1°C° 1.1 mm 4 m/S 736 mmHg 97%
    01:00 -1°C° 1.1 mm 4 m/S 736 mmHg 97%
    02:00 0°C° 0.2 mm 3 m/S 736 mmHg 98%
    03:00 0°C° 0.2 mm 3 m/S 736 mmHg 98%
    04:00 +2°C° 0.2 mm 2 m/S 736 mmHg 98%
    05:00 +2°C° 0.1 mm 2 m/S 736 mmHg 98%
    06:00 +2°C° 0.1 mm 2 m/S 736 mmHg 98%
    07:00 +2°C° 0.1 mm 2 m/S 736 mmHg 98%
    08:00 +2°C° 0.1 mm 2 m/S 736 mmHg 98%
    09:00 +2°C° 0.1 mm 2 m/S 736 mmHg 98%
    10:00 +4°C° 0.1 mm 1 m/S 736 mmHg 98%
    11:00 +4°C° 0.1 mm 1 m/S 736 mmHg 98%
    12:00 +4°C° 0.1 mm 1 m/S 736 mmHg 98%
    13:00 +4°C° 0.1 mm 1 m/S 736 mmHg 98%
    14:00 +4°C° 0 mm 1 m/S 736 mmHg 98%
    15:00 +3°C° 0 mm 2 m/S 736 mmHg 98%
    16:00 +3°C° 0 mm 2 m/S 736 mmHg 98%
    17:00 +3°C° 0 mm 2 m/S 735 mmHg 98%
    18:00 +3°C° 0 mm 2 m/S 735 mmHg 98%
    19:00 +3°C° 0 mm 2 m/S 734 mmHg 98%
    20:00 +3°C° 0.3 mm 2 m/S 733 mmHg 98%
    21:00 +3°C° 0.3 mm 2 m/S 732 mmHg 98%
    22:00 +4°C° 0.3 mm 2 m/S 731 mmHg 98%
    23:00 +3°C° 1.7 mm 3 m/S 730 mmHg 97%

    22 Oktober, Dienstag

    Zeit Temperatur Niederschläge Wind Luftdruck Luftfeuchtigkeit
    00:00 +4°C° 1.7 mm 4 m/S 728 mmHg 96%
    01:00 +5°C° 1.7 mm 5 m/S 727 mmHg 96%
    02:00 +5°C° 2.6 mm 5 m/S 726 mmHg 95%
    03:00 +4°C° 2.6 mm 6 m/S 725 mmHg 95%
    04:00 +4°C° 2.6 mm 6 m/S 724 mmHg 94%
    05:00 +5°C° 2.1 mm 7 m/S 723 mmHg 94%
    06:00 +5°C° 2.1 mm 7 m/S 722 mmHg 94%
    07:00 +5°C° 2.1 mm 7 m/S 721 mmHg 94%
    08:00 +5°C° 1 mm 7 m/S 720 mmHg 94%
    09:00 +7°C° 1 mm 6 m/S 720 mmHg 94%
    10:00 +7°C° 1 mm 6 m/S 719 mmHg 95%
    11:00 +5°C° 0.7 mm 7 m/S 720 mmHg 94%
    12:00 +5°C° 0.7 mm 7 m/S 720 mmHg 93%
    13:00 +4°C° 0.7 mm 7 m/S 721 mmHg 92%
    14:00 +4°C° 0.2 mm 7 m/S 722 mmHg 92%
    15:00 +3°C° 0.2 mm 7 m/S 723 mmHg 92%
    16:00 +3°C° 0.2 mm 7 m/S 724 mmHg 92%
    17:00 +2°C° 0.1 mm 7 m/S 725 mmHg 93%
    18:00 +2°C° 0.1 mm 6 m/S 725 mmHg 94%
    19:00 +1°C° 0.1 mm 6 m/S 726 mmHg 94%
    20:00 -1°C° 0.2 mm 6 m/S 726 mmHg 94%
    21:00 0°C° 0.2 mm 5 m/S 727 mmHg 95%
    22:00 -1°C° 0.2 mm 5 m/S 727 mmHg 95%
    23:00 -2°C° 0.2 mm 5 m/S 728 mmHg 94%

    23 Oktober, Mittwoch

    Zeit Temperatur Niederschläge Wind Luftdruck Luftfeuchtigkeit
    00:00 -2°C° 0.2 mm 5 m/S 728 mmHg 93%
    01:00 -2°C° 0.2 mm 5 m/S 729 mmHg 92%
    02:00 -3°C° 0.1 mm 4 m/S 729 mmHg 91%
    03:00 -4°C° 0.1 mm 4 m/S 730 mmHg 90%
    04:00 -5°C° 0.1 mm 3 m/S 730 mmHg 89%
    05:00 -5°C° 0 mm 3 m/S 731 mmHg 90%
    06:00 -5°C° 0 mm 2 m/S 731 mmHg 91%
    07:00 -5°C° 0 mm 2 m/S 732 mmHg 92%
    08:00 -4°C° 0 mm 2 m/S 732 mmHg 88%
    09:00 -2°C° 0 mm 1 m/S 732 mmHg 84%
    10:00 -1°C° 0 mm 1 m/S 732 mmHg 80%
    11:00 -1°C° 0 mm 1 m/S 732 mmHg 80%
    12:00 0°C° 0 mm 1 m/S 732 mmHg 79%
    13:00 -2°C° 0 mm 2 m/S 732 mmHg 79%
    14:00 -2°C° 0 mm 2 m/S 732 mmHg 81%
    15:00 -2°C° 0 mm 2 m/S 732 mmHg 83%
    16:00 -3°C° 0 mm 2 m/S 732 mmHg 86%
    17:00 -3°C° 0 mm 2 m/S 732 mmHg 88%
    18:00 -3°C° 0 mm 2 m/S 731 mmHg 90%
    19:00 -3°C° 0 mm 2 m/S 731 mmHg 92%
    20:00 -2°C° 0 mm 3 m/S 731 mmHg 91%
    21:00 -2°C° 0 mm 4 m/S 730 mmHg 90%
    22:00 -2°C° 0 mm 5 m/S 730 mmHg 89%
    23:00 -1°C° 0 mm 5 m/S 729 mmHg 89%

    24 Oktober, Donnerstag

    Zeit Temperatur Niederschläge Wind Luftdruck Luftfeuchtigkeit
    00:00 -1°C° 0 mm 5 m/S 729 mmHg 89%
    01:00 -1°C° 0 mm 5 m/S 728 mmHg 89%
    02:00 -1°C° 0.2 mm 5 m/S 727 mmHg 92%
    03:00 -1°C° 0.2 mm 5 m/S 727 mmHg 94%
    04:00 -1°C° 0.2 mm 5 m/S 726 mmHg 97%
    05:00 0°C° 0.8 mm 5 m/S 726 mmHg 97%
    06:00 0°C° 0.8 mm 5 m/S 726 mmHg 96%
    07:00 +1°C° 0.8 mm 5 m/S 725 mmHg 96%
    08:00 +2°C° 0.4 mm 5 m/S 725 mmHg 96%
    09:00 +2°C° 0.4 mm 5 m/S 725 mmHg 96%
    10:00 +2°C° 0.4 mm 6 m/S 725 mmHg 95%
    11:00 +2°C° 0.2 mm 6 m/S 725 mmHg 95%
    12:00 +3°C° 0.2 mm 6 m/S 725 mmHg 95%
    13:00 +3°C° 0.2 mm 6 m/S 725 mmHg 95%
    14:00 +3°C° 0.1 mm 6 m/S 725 mmHg 95%
    15:00 +3°C° 0.1 mm 6 m/S 726 mmHg 96%
    16:00 +3°C° 0.1 mm 6 m/S 726 mmHg 96%
    17:00 +3°C° 0.1 mm 6 m/S 726 mmHg 96%
    18:00 +3°C° 0.1 mm 6 m/S 727 mmHg 96%
    19:00 +3°C° 0.1 mm 6 m/S 727 mmHg 95%
    20:00 +3°C° 0 mm 6 m/S 727 mmHg 95%
    21:00 +3°C° 0 mm 5 m/S 728 mmHg 95%
    22:00 +2°C° 0 mm 5 m/S 728 mmHg 94%
    23:00 +3°C° 0 mm 4 m/S 729 mmHg 95%
    Mehr zeigen